{"data":{"norad_id":53402,"intl_designator":"2022-097Q","name":"STARLINK-4499","alt_names":[],"object_type":"PAYLOAD","status":"ACTIVE","operator":null,"country":"US","launch_date":"2022-08-10","launch_site_code":"AFETR","launch_vehicle":null,"mission":null,"orbit_class":"UNKNOWN","rcs_meters":null,"size_class":null,"mass_kg":null,"dimensions":null,"purposes":["comms"],"wikipedia_slug":null,"has_3d_model":false,"image_url":null,"decayed_at":null,"tle_current":{"epoch":"2026-09-20T04:22:32.168064Z","epoch_age_seconds":102818,"freshness":"FRESH","line1":"1 53402U 22097Q   26263.18231676 -.00000372  00000+0  11091-6 0  9997","line2":"2 53402  53.1642 319.5253 0001187  88.0240 272.0899 15.34385337228038","mean_motion":15.34385337,"eccentricity":0.0001187,"inclination_deg":53.1642,"raan_deg":319.5253,"arg_perigee_deg":88.024,"mean_anomaly_deg":272.0899,"bstar":1.1091e-7,"rev_number":22803,"period_min":93.848654915815,"perigee_km":461.93480917057,"apogee_km":463.55883498994,"semimajor_km":6840.8838220803,"source":"CELESTRAK","updated_at":"2026-09-20T09:00:40.225867Z"}}}